Flag for U.S.A. Weather past 2 weeks in Monterey, California, U.S.A.

Now
68 °F

Sunny.


Feels Like: 68 °F
Forecast: 48 / 64 °F
Wind: No wind

Location: Monterey Peninsula Airport

Current Time: Feb 1, 2015 at 1:16:22 PM

Latest Report: Feb 1, 2015 at 12:54 PM


Visibility: 10 mi

Pressure: 30.15 "Hg

Humidity: 32%

Dew point: 37 °F

Location of MontereyLocation

Historic Weather in Monterey — Graph

°F

Monterey temperature yesterday

Maximum temperature yesterday: 72 °F (at 12:54 PM)
Minimum temperature yesterday: 45 °F (at 6:54 AM)
Average temperature yesterday: 55 °F

Past Weeks' High & Low Weather Summary

 TemperatureHumidityPressure
High80 °F (Jan 25, 1:54 PM)100% (Jan 30, 3:02 AM)30.37 "Hg (Jan 30, 3:02 AM)
Low40 °F (Jan 23, 6:54 AM)11% (Jan 25, 3:54 PM)29.92 "Hg (Jan 31, 6:04 AM)
Average55 °F67%30.16 "Hg
* Reported Jan 17 11:54 AM — Feb 1 11:54 AM, Monterey, Weather by CustomWeather, © 2014

Note: Actual official high and low records may vary slightly from our data, if they occured in-between our weather recording intervals... More about our weather records

Advertising

Monterey weather history for previous 24 hours

 ConditionsComfort  
Time TempWeatherWind HumidityBarometerVisibility
11:54 AM
Feb 1
62 °FSunny.5 mph48%30.18 "Hg10 mi
10:54 AM65 °FSunny.No wind42%30.18 "Hg10 mi
9:54 AM57 °FSunny.No wind67%30.19 "Hg10 mi
8:54 AM55 °FSunny.No wind47%30.16 "Hg10 mi
7:54 AM47 °FSunny.3 mph56%30.15 "Hg10 mi
6:54 AM45 °FClear.6 mph60%30.14 "Hg10 mi
5:54 AM43 °FClear.3 mph60%30.14 "Hg10 mi
4:54 AM44 °FClear.No wind63%30.13 "Hg10 mi
3:54 AM47 °FClear.5 mph56%30.12 "Hg10 mi
2:54 AM47 °FClear.No wind56%30.11 "Hg10 mi
1:54 AM49 °FClear.8 mph55%30.10 "Hg10 mi
12:54 AM49 °FClear.5 mph59%30.11 "Hg10 mi
11:54 PM
Jan 31
45 °FClear.6 mph71%30.11 "Hg10 mi
10:54 PM48 °FClear.3 mph68%30.10 "Hg10 mi
9:54 PM51 °FClear.3 mph61%30.08 "Hg10 mi
8:54 PM49 °FClear.5 mph71%30.07 "Hg10 mi
7:54 PM50 °FClear.3 mph71%30.06 "Hg10 mi
6:54 PM52 °FClear.7 mph69%30.06 "Hg10 mi
5:54 PM59 °FClear.No wind64%30.03 "Hg10 mi
4:54 PM64 °FSunny.3 mph49%30.01 "Hg10 mi
3:54 PM66 °FSunny.5 mph40%30.01 "Hg10 mi
2:54 PM65 °FSunny.9 mph40%30.00 "Hg10 mi
1:54 PM63 °FSunny.9 mph63%29.99 "Hg10 mi
Weather by CustomWeather, © 2014

See weather overviewHow to use our weather pages